Regional Weather Roundup
Issued by NWS Charleston, SC

Current Version | Previous Version | Graphics & Text | Print | Product List | Glossary On
Versions: 1 2 3 4 5 6 7 8 9 10 11 12 13 14 15 16 17 18 19 20 21 22 23 24 25 26 27 28 29 30 31 32 33 34 35 36 37 38 39 40 41 42 43 44 45 46 47 48 49 50
000
ASUS42 KCHS 300825
RWRCHS

REGIONAL WEATHER ROUNDUP
NATIONAL WEATHER SERVICE CHARLESTON SC
400 AM EDT WED JUL 30 2014

NOTE: "FAIR" INDICATES FEW OR NO CLOUDS BELOW 12,000 FEET WITH NO
SIGNIFICANT WEATHER AND/OR OBSTRUCTIONS TO VISIBILITY.

NOT ALL STATIONS ARE QUALITY CONTROLLED BY THE NATIONAL
WEATHER SERVICE. USE DATA WITH CAUTION...ESPECIALLY
DEWPOINT OBSERVATIONS.

SCZ027-030-031-034>040-042>050-300900-
...SOUTH CAROLINA...

CITY           SKY/WX    TMP DP  RH WIND       PRES   REMARKS
N CHARLESTON   CLEAR     74  70  87 CALM      29.94F
WATERFRONT PRK   N/A     81 N/A N/A NE7         N/A
FORT JOHNSON   NOT AVBL
MOUNT PLEASANT FAIR      72  72 100 CALM      29.94F FOG
JOHNS ISLAND   SUNNY     73  70  88 CALM      29.94S
PINOPOLIS        N/A     77  72  83 E6        29.86S
MONCKS CORNER    N/A     70  70 100 CALM      29.95S FOG
SUMMERVILLE    FAIR      68  68 100 CALM      29.95S
BEAUFORT MCAS  MOCLDY    75  71  87 CALM      29.94S
BEAUFORT ARPT  FAIR      75  75 100 CALM      29.93S
HILTON HEAD IS CLEAR     75  73  94 W3        29.95S
GEORGETOWN     NOT AVBL
WALTERBORO     SUNNY     70 N/A N/A CALM      29.96R
ORANGEBURG     CLOUDY    73  62  68 NE6       29.96S
BARNWELL       FAIR      70  64  83 E3        29.96S
AIKEN          PTSUNNY   70  63  78 N6        30.02R
MANNING        FAIR      68 N/A N/A CALM      29.96S
KINGSTREE      NOT AVBL
COLUMBIA       MOCLDY    74  59  59 N3        29.97R
SUMTER         PTCLDY    67  62  84 NE6       29.95F
FLORENCE       CLEAR     68  62  81 NE3       29.97S
MYRTLE BEACH   PTCLDY    73  66  78 N6        29.95S
N MYRTLE BEACH CLEAR     70  66  87 NE3       29.95S

$$

GAZ063-065-086>088-099>101-113>116-118-119-134-136>141-150-300900-
...GEORGIA...

CITY           SKY/WX    TMP DP  RH WIND       PRES   REMARKS
SAVANNAH ARPT  CLEAR     74  65  73 CALM      29.94F
HUNTER AAF     CLEAR     73  69  87 W5        29.92S
FORT STEWART   CLOUDY    70  66  88 CALM      29.93S
STATESBORO     NOT AVBL
SYLVANIA       MOSUNNY   68  68 100 CALM      29.96S
CLAXTON        FAIR      68  68 100 CALM      29.95S
THOMSON        CLEAR     64  64 100 CALM      30.04R
AUGUSTA-BUSH   CLEAR     66  61  84 NW3       29.96R
AUGUSTA-DANIEL CLEAR     73  60  63 N9        29.98R
SWAINSBORO     CLOUDY    68  68 100 NW3       29.98R
VIDALIA          N/A     72  63  73 N7        29.97R
ALMA           MOCLDY    70  61  73 NW6       29.95S
WAYCROSS       MOCLDY    71  64  80 CALM      29.95S
JESUP          DRIZZLE   73  66  78 CALM      29.95R
BRUNSWICK      CLOUDY    77  72  83 SW3       29.94S
SAINT SIMONS   CLOUDY    79  73  82 W5        29.93S

$$

SCZ027-028-034-036>038-045-046-048>050-GAZ119-141-300900-
...LAKE AND SUPPLEMENTAL COASTAL OBSERVATIONS...

STATION/POSITION TIME  TEMP    WIND        PRES    WAVE   SWELL
                       AIR SEA DIR/SP/G            HT/PER HT/PER/DIR
                 (UTC) (F)     (DEG/KT/KT) (MB)    (FT/S) (FT/S/D)
UPR LAKE MARION  NOT AVBL
WINYAH BAY       0800   71     320/  2     1014.0S
LAKE MURRAY      0800   71     360/  3/  7 1014.9S
ACE BASIN NERRS  0800   74        CALM     1014.0S
FORT PULASKI     0800   79     300/  3/  4 1013.8F
SAPELO ISLAND    0800   77      20/  4     1014.0S

$$

ANZ835-935-AMZ111-154-330-350-352-354-374-450-454-472-300900-
...C-MAN AND BUOY OBSERVATIONS...

STATION/POSITION TIME  TEMP    WIND        PRES    WAVE   SWELL
                       AIR SEA DIR/SP/G            HT/PER HT/PER/DIR
                 (UTC) (F)     (DEG/KT/KT) (MB)    (FT/S) (FT/S/D)
FOLLY BEACH CMAN 0800   81      80/  8/  9 1014.2F
BUOY 41004       0800   81 84   80/  6/ 10 1013.1F   2/ 7   2/ 7
BUOY 41008       0800   83 85   70/  6/  8 1013.4S   1/ 8   2/110/ 8
5E ST. MARYS GA  0800      85                N/A     2/ 5
FRYING PAN BUOY  NOT AVBL
BUOY 41025       0800          VRB 12/ 14  1014.4R   3/ 8   3/130/ 8
CAPE LOOKOUT NC  0800   77      50/ 12/ 14 1014.5R
BUOY 41002       0702   81 80  220/ 16/ 17 1013.1F   6/ 7   3/200/ 8
BUOY 41010       0800   84 84  240/ 14/ 16 1013.2F   3/ 5   2/ 70/ 8
BUOY 41012       NOT AVBL
ST AUGUSTINE FL  0800   76     290/  8/  9 1013.6S
CAPERS NEARSHORE 0700   81      90/  6/  6   N/A
FRIPP NEARSHORE  NOT AVBL


$$



USA.gov is the U.S. government's official web portal to all federal, state and local government web resources and services.